When you browse on this site, cookies collect data to enhance your experience and personalize the content and advertising you see.
Visit our Privacy Policy to learn more. By continuing to use the site, you agree to this use of cookies and data.
  • In Czech Republic
  • List of Countries
  • For 7 days
  • Water Temperature
  • Satellite Maps
  • Weather Map
  • Weather Widgets
  • user-avatar
    Login

    Hourly Weather Leg

    Today, 10 December, Monday

    Time Temperature Precipitation Wind Pressure Humidity
    00:00 +4°C° 0.4 mm 7 mps 740 mmHg 80%
    01:00 +4°C° 0.4 mm 8 mps 740 mmHg 79%
    02:00 +4°C° 0.4 mm 8 mps 741 mmHg 78%
    03:00 +4°C° 0.4 mm 8 mps 741 mmHg 77%
    04:00 +4°C° 0.4 mm 8 mps 742 mmHg 76%
    05:00 +2°C° 0.1 mm 8 mps 742 mmHg 75%
    06:00 +2°C° 0.1 mm 8 mps 743 mmHg 75%
    07:00 +2°C° 0.1 mm 7 mps 743 mmHg 75%
    08:00 +1°C° 0 mm 8 mps 744 mmHg 74%
    09:00 +1°C° 0 mm 8 mps 745 mmHg 73%
    10:00 +1°C° 0 mm 8 mps 746 mmHg 72%
    11:00 +2°C° 0.1 mm 8 mps 746 mmHg 70%
    12:00 +2°C° 0.1 mm 8 mps 746 mmHg 67%
    13:00 +2°C° 0.1 mm 9 mps 746 mmHg 65%
    14:00 +2°C° 0 mm 8 mps 746 mmHg 66%
    15:00 +2°C° 0 mm 7 mps 747 mmHg 68%
    16:00 +2°C° 0 mm 6 mps 747 mmHg 69%
    17:00 +1°C° 0 mm 6 mps 747 mmHg 71%
    18:00 +1°C° 0 mm 6 mps 747 mmHg 72%
    19:00 +1°C° 0 mm 6 mps 747 mmHg 73%
    20:00 +1°C° 0 mm 6 mps 747 mmHg 75%
    21:00 -1°C° 0 mm 6 mps 747 mmHg 77%
    22:00 0°C° 0 mm 5 mps 747 mmHg 80%
    23:00 0°C° 0 mm 5 mps 747 mmHg 81%

    Tomorrow, 11 December, Tuesday

    Time Temperature Precipitation Wind Pressure Humidity
    00:00 0°C° 0 mm 5 mps 747 mmHg 82%
    01:00 0°C° 0 mm 5 mps 747 mmHg 84%
    02:00 0°C° 0.2 mm 5 mps 747 mmHg 84%
    03:00 0°C° 0.2 mm 5 mps 747 mmHg 84%
    04:00 0°C° 0.2 mm 5 mps 746 mmHg 85%
    05:00 0°C° 0.4 mm 5 mps 746 mmHg 85%
    06:00 0°C° 0.4 mm 5 mps 746 mmHg 86%
    07:00 0°C° 0.4 mm 4 mps 746 mmHg 86%
    08:00 +1°C° 0.3 mm 4 mps 747 mmHg 87%
    09:00 +1°C° 0.3 mm 4 mps 747 mmHg 88%
    10:00 +1°C° 0.3 mm 4 mps 747 mmHg 89%
    11:00 +2°C° 0.2 mm 3 mps 747 mmHg 89%
    12:00 +2°C° 0.2 mm 3 mps 747 mmHg 90%
    13:00 +2°C° 0.2 mm 3 mps 748 mmHg 90%
    14:00 +2°C° 0.3 mm 3 mps 748 mmHg 91%
    15:00 +2°C° 0.3 mm 3 mps 749 mmHg 93%
    16:00 +3°C° 0.3 mm 2 mps 749 mmHg 94%
    17:00 +1°C° 0.1 mm 3 mps 750 mmHg 94%
    18:00 +1°C° 0.1 mm 3 mps 750 mmHg 94%
    19:00 +1°C° 0.1 mm 3 mps 751 mmHg 94%
    20:00 0°C° 0 mm 4 mps 751 mmHg 92%
    21:00 0°C° 0 mm 4 mps 752 mmHg 91%
    22:00 0°C° 0 mm 4 mps 752 mmHg 90%
    23:00 0°C° 0.1 mm 4 mps 752 mmHg 91%

    Day after tomorrow, 12 December, Wednesday

    Time Temperature Precipitation Wind Pressure Humidity
    00:00 -1°C° 0.1 mm 4 mps 753 mmHg 91%
    01:00 -1°C° 0.1 mm 4 mps 753 mmHg 92%
    02:00 -1°C° 0.1 mm 4 mps 754 mmHg 92%
    03:00 0°C° 0.1 mm 3 mps 754 mmHg 93%
    04:00 0°C° 0.1 mm 3 mps 754 mmHg 93%
    05:00 -1°C° 0.1 mm 3 mps 755 mmHg 93%
    06:00 -1°C° 0.1 mm 3 mps 755 mmHg 94%
    07:00 -1°C° 0.1 mm 2 mps 755 mmHg 94%
    08:00 -1°C° 0 mm 2 mps 756 mmHg 92%
    09:00 -1°C° 0 mm 2 mps 756 mmHg 91%
    10:00 -1°C° 0 mm 2 mps 756 mmHg 89%
    11:00 +1°C° 0 mm 2 mps 756 mmHg 88%
    12:00 +2°C° 0 mm 1 mps 756 mmHg 86%
    13:00 +3°C° 0 mm 1 mps 756 mmHg 84%
    14:00 +2°C° 0 mm 1 mps 757 mmHg 87%
    15:00 +1°C° 0 mm 1 mps 757 mmHg 89%
    16:00 +1°C° 0 mm 1 mps 757 mmHg 91%
    17:00 +1°C° 0 mm 1 mps 757 mmHg 92%
    18:00 +1°C° 0 mm 1 mps 757 mmHg 92%
    19:00 0°C° 0 mm 1 mps 757 mmHg 92%
    20:00 0°C° 0 mm 1 mps 758 mmHg 92%
    21:00 0°C° 0 mm 1 mps 758 mmHg 92%
    22:00 -1°C° 0 mm 0 mps 758 mmHg 92%
    23:00 0°C° 0 mm 1 mps 758 mmHg 92%

    13 December, Thursday

    Time Temperature Precipitation Wind Pressure Humidity
    00:00 0°C° 0 mm 1 mps 758 mmHg 92%
    01:00 0°C° 0 mm 1 mps 758 mmHg 92%
    02:00 0°C° 0 mm 1 mps 758 mmHg 92%
    03:00 0°C° 0 mm 1 mps 758 mmHg 92%
    04:00 0°C° 0 mm 1 mps 758 mmHg 92%
    05:00 0°C° 0 mm 1 mps 758 mmHg 92%
    06:00 0°C° 0 mm 1 mps 758 mmHg 92%
    07:00 +1°C° 0 mm 1 mps 758 mmHg 93%
    08:00 +1°C° 0 mm 1 mps 758 mmHg 92%
    09:00 +1°C° 0 mm 1 mps 758 mmHg 91%
    10:00 +1°C° 0 mm 1 mps 758 mmHg 90%
    11:00 +1°C° 0 mm 1 mps 758 mmHg 88%
    12:00 +2°C° 0 mm 1 mps 757 mmHg 86%
    13:00 +2°C° 0 mm 1 mps 757 mmHg 83%
    14:00 +2°C° 0 mm 1 mps 757 mmHg 84%
    15:00 +2°C° 0 mm 1 mps 757 mmHg 85%
    16:00 +1°C° 0 mm 1 mps 757 mmHg 86%
    17:00 +1°C° 0 mm 1 mps 757 mmHg 86%
    18:00 +1°C° 0 mm 1 mps 757 mmHg 87%
    19:00 +1°C° 0 mm 1 mps 756 mmHg 88%
    20:00 +1°C° 0 mm 1 mps 756 mmHg 89%
    21:00 +1°C° 0 mm 1 mps 757 mmHg 89%
    22:00 +1°C° 0 mm 1 mps 757 mmHg 90%
    23:00 +1°C° 0 mm 1 mps 756 mmHg 90%

    14 December, Friday

    Time Temperature Precipitation Wind Pressure Humidity
    00:00 +1°C° 0 mm 1 mps 756 mmHg 90%
    01:00 +1°C° 0 mm 1 mps 756 mmHg 91%
    02:00 -2°C° 0 mm 2 mps 756 mmHg 91%
    03:00 -2°C° 0 mm 2 mps 756 mmHg 91%
    04:00 -2°C° 0 mm 2 mps 756 mmHg 92%
    05:00 -2°C° 0 mm 2 mps 756 mmHg 91%
    06:00 -2°C° 0 mm 2 mps 756 mmHg 90%
    07:00 -2°C° 0 mm 2 mps 756 mmHg 90%
    08:00 -2°C° 0 mm 2 mps 757 mmHg 88%
    09:00 -2°C° 0 mm 2 mps 757 mmHg 87%
    10:00 -1°C° 0 mm 2 mps 757 mmHg 85%
    11:00 -1°C° 0 mm 2 mps 757 mmHg 84%
    12:00 -1°C° 0 mm 2 mps 757 mmHg 82%
    13:00 -1°C° 0 mm 2 mps 757 mmHg 80%
    14:00 -1°C° 0 mm 2 mps 757 mmHg 83%
    15:00 -2°C° 0 mm 2 mps 757 mmHg 86%
    16:00 -2°C° 0 mm 2 mps 757 mmHg 89%
    17:00 -2°C° 0 mm 2 mps 757 mmHg 89%
    18:00 -2°C° 0 mm 2 mps 757 mmHg 90%
    19:00 -2°C° 0 mm 2 mps 757 mmHg 91%
    20:00 -2°C° 0.1 mm 2 mps 757 mmHg 91%
    21:00 -2°C° 0.1 mm 2 mps 757 mmHg 91%
    22:00 -2°C° 0.1 mm 2 mps 757 mmHg 91%
    23:00 -2°C° 0 mm 2 mps 757 mmHg 90%

    15 December, Saturday

    Time Temperature Precipitation Wind Pressure Humidity
    00:00 -2°C° 0 mm 2 mps 757 mmHg 90%
    01:00 -2°C° 0 mm 2 mps 758 mmHg 90%
    02:00 -2°C° 0 mm 2 mps 758 mmHg 90%
    03:00 -2°C° 0 mm 3 mps 758 mmHg 90%
    04:00 -2°C° 0 mm 3 mps 758 mmHg 90%
    05:00 -2°C° 0 mm 3 mps 758 mmHg 90%
    06:00 -2°C° 0 mm 3 mps 758 mmHg 90%
    07:00 -2°C° 0 mm 3 mps 758 mmHg 90%
    08:00 -2°C° 0 mm 3 mps 759 mmHg 89%
    09:00 -2°C° 0 mm 3 mps 759 mmHg 88%
    10:00 -2°C° 0 mm 3 mps 759 mmHg 86%
    11:00 -1°C° 0 mm 3 mps 759 mmHg 85%
    12:00 -1°C° 0 mm 3 mps 759 mmHg 83%
    13:00 -1°C° 0 mm 3 mps 759 mmHg 81%
    14:00 -1°C° 0 mm 3 mps 759 mmHg 82%
    15:00 -1°C° 0 mm 3 mps 759 mmHg 83%
    16:00 -1°C° 0 mm 2 mps 759 mmHg 84%
    17:00 -2°C° 0 mm 2 mps 759 mmHg 86%
    18:00 -2°C° 0 mm 2 mps 760 mmHg 87%
    19:00 -2°C° 0 mm 2 mps 760 mmHg 89%
    20:00 -2°C° 0 mm 2 mps 760 mmHg 90%
    21:00 -2°C° 0 mm 2 mps 760 mmHg 91%
    22:00 -3°C° 0 mm 2 mps 760 mmHg 92%
    23:00 -3°C° 0 mm 2 mps 759 mmHg 92%
    Show more